N7LK Weather Reports


time (UTC)temp
F
wind
direction
speed
knots
gust
knots
rain 1hr
in
rain 24hr
in
rain mn
in
humidity
%
barometer
mb
20260505185342 75 275 2.6 7.0 0.00 0.00 0.00 37 1009.5
20260505184333 75 246 4.3 9.6 0.00 0.00 0.00 38 1009.8
20260505183401 75 235 3.5 7.0 0.00 0.00 0.00 37 1009.6
20260505182327 74 240 2.6 10.4 0.00 0.00 0.00 40 1009.8
20260505181335 74 304 3.5 8.7 0.00 0.00 0.00 38 1009.9
20260505180406 73 257 4.3 8.7 0.00 0.00 0.00 40 1009.8
20260505175333 73 280 5.2 8.7 0.00 0.00 0.00 41 1009.9
20260505174341 72 273 2.6 9.6 0.00 0.00 0.00 42 1009.9
20260505173329 72 34 0.0 8.7 0.00 0.00 0.00 42 1009.9
20260505172340 72 238 4.3 8.7 0.00 0.00 0.00 44 1009.9
20260505171330 72 265 3.5 7.8 0.00 0.00 0.00 43 1009.9
20260505170356 71 228 0.9 7.8 0.00 0.00 0.00 43 1010.0
20260505165344 71 269 1.7 5.2 0.00 0.00 0.00 45 1009.9
20260505164336 70 238 2.6 7.8 0.00 0.00 0.00 46 1010.0
20260505163344 68 287 0.9 6.1 0.00 0.00 0.00 47 1010.0
20260505162331 68 279 2.6 6.1 0.00 0.00 0.00 51 1010.0
20260505161359 68 150 2.6 5.2 0.00 0.00 0.00 53 1010.1
20260505160331 68 223 2.6 8.7 0.00 0.00 0.00 55 1010.2
20260505153332 68 281 3.5 8.7 0.00 0.00 0.00 53 1010.1
20260505152344 69 249 5.2 11.3 0.00 0.00 0.00 53 1010.0
20260505151331 69 267 2.6 7.8 0.00 0.00 0.00 54 1009.9
20260505150338 68 273 4.3 9.6 0.00 0.00 0.00 54 1009.9
20260505140350 66 185 0.0 0.9 0.00 0.00 0.00 55 1009.7
20260505124333 66 220 0.0 1.7 0.00 0.00 0.00 54 1009.1
20260505123340 66 182 0.9 3.5 0.00 0.00 0.00 54 1008.9
20260505122327 66 207 0.9 3.5 0.00 0.00 0.00 53 1008.9
20260505121333 66 201 1.7 4.3 0.00 0.00 0.00 53 1008.8
20260505120403 66 226 1.7 5.2 0.00 0.00 0.00 53 1008.7
20260505115327 66 200 1.7 4.3 0.00 0.00 0.00 52 1008.7
20260505114334 67 265 0.9 3.5 0.00 0.00 0.00 52 1008.7
20260505113340 67 247 0.0 3.5 0.00 0.00 0.00 52 1008.6
20260505112332 67 235 0.0 4.3 0.00 0.00 0.00 51 1008.7
20260505111338 67 219 0.0 4.3 0.00 0.00 0.00 50 1008.4
20260505110346 68 262 1.7 3.5 0.00 0.00 0.00 49 1008.3
20260505101342 69 255 0.9 6.1 0.00 0.00 0.00 47 1009.0
20260505100333 69 247 0.9 8.7 0.00 0.00 0.00 46 1009.2
20260505095340 70 261 2.6 6.1 0.00 0.00 0.00 44 1009.3
20260505094327 70 265 0.0 6.1 0.00 0.00 0.00 43 1009.3
20260505093334 70 281 0.0 1.7 0.00 0.00 0.00 43 1009.4
20260505092344 70 245 1.7 5.2 0.00 0.00 0.00 42 1009.5
20260505091332 70 265 0.0 3.5 0.00 0.00 0.00 41 1009.6
20260505090337 70 231 0.0 1.7 0.00 0.00 0.00 40 1009.6
20260505085344 71 214 0.0 0.0 0.00 0.00 0.00 40 1009.5
20260505084334 71 250 0.0 1.7 0.00 0.00 0.00 39 1009.7
20260505083403 71 234 0.0 3.5 0.00 0.00 0.00 39 1009.9
20260505082330 71 246 0.9 4.3 0.00 0.00 0.00 39 1010.0
20260505081336 71 189 0.0 3.5 0.00 0.00 0.00 38 1010.0
20260505080327 71 207 0.0 3.5 0.00 0.00 0.00 38 1009.7
20260505075334 71 205 1.7 4.3 0.00 0.00 0.00 38 1010.1
20260505074341 71 211 1.7 5.2 0.00 0.00 0.00 37 1010.0
20260505073328 72 179 2.6 6.1 0.00 0.00 0.00 37 1009.9
20260505072339 72 216 3.5 7.0 0.00 0.00 0.00 36 1009.9
20260505071345 72 171 3.5 5.2 0.00 0.00 0.00 35 1010.1
20260505070352 72 147 3.5 6.1 0.00 0.00 0.00 36 1009.9
20260505065358 72 202 2.6 6.1 0.00 0.00 0.00 39 1010.1
20260505064343 72 194 0.0 2.6 0.00 0.00 0.00 42 1009.8
20260505063335 73 244 0.9 5.2 0.00 0.00 0.00 41 1009.7
20260505062342 73 271 0.9 3.5 0.00 0.00 0.00 41 1009.6
20260505061329 73 270 1.7 5.2 0.00 0.00 0.00 41 1009.5
20260505060335 73 257 0.9 5.2 0.00 0.00 0.00 41 1009.4
20260505055406 73 264 0.9 3.5 0.00 0.00 0.00 40 1009.2
20260505054353 73 247 0.0 3.5 0.00 0.00 0.00 41 1009.2
20260505053338 73 217 0.0 3.5 0.00 0.00 0.00 41 1009.5
20260505052405 73 259 0.9 7.0 0.00 0.00 0.00 41 1009.6
20260505051332 73 271 2.6 6.1 0.00 0.00 0.00 41 1009.8
20260505050343 73 271 1.7 5.2 0.00 0.00 0.00 40 1010.1
20260505041347 74 234 1.7 5.2 0.00 0.00 0.00 40 1009.7
20260505040328 74 248 1.7 7.8 0.00 0.00 0.00 41 1009.8
20260505035329 74 229 1.7 7.8 0.00 0.00 0.00 41 1009.8
20260505034328 74 243 1.7 5.2 0.00 0.00 0.00 41 1009.6
20260505033325 74 215 2.6 7.8 0.00 0.00 0.00 42 1009.1
20260505032327 74 239 2.6 7.8 0.00 0.00 0.00 42 1009.0
20260505031327 74 221 1.7 7.0 0.00 0.00 0.00 43 1008.9
20260505030327 74 251 3.5 9.6 0.00 0.00 0.00 42 1008.7
20260505025345 74 261 0.9 5.2 0.00 0.00 0.00 42 1008.7
20260505024344 74 238 3.5 7.8 0.00 0.00 0.00 42 1008.7
20260505023327 74 266 3.5 7.8 0.00 0.00 0.00 42 1008.8
20260505022329 75 259 5.2 8.7 0.00 0.00 0.00 41 1008.8
20260505021328 75 294 6.1 7.8 0.00 0.00 0.00 41 1008.7
20260505020328 75 279 2.6 7.8 0.00 0.00 0.00 40 1008.7
20260505015347 75 219 0.9 7.8 0.00 0.00 0.00 40 1008.6
20260505014352 75 271 4.3 7.0 0.00 0.00 0.00 40 1008.6
20260505013328 76 238 3.5 7.0 0.00 0.00 0.00 39 1008.6
20260505012347 76 268 0.9 7.8 0.00 0.00 0.00 38 1008.5
20260505011327 76 313 3.5 7.0 0.00 0.00 0.00 37 1008.5
20260505010327 76 261 0.0 6.1 0.00 0.00 0.00 36 1008.5
20260505005329 77 279 0.9 7.0 0.00 0.00 0.00 36 1008.5
20260505004328 77 267 2.6 6.1 0.00 0.00 0.00 35 1008.7
20260505003327 77 258 0.9 7.0 0.00 0.00 0.00 36 1008.7
20260505002346 77 306 1.7 7.0 0.00 0.00 0.00 36 1008.8
20260505001328 77 261 2.6 7.0 0.00 0.00 0.00 37 1008.8
20260505000351 77 277 2.6 7.0 0.00 0.00 0.00 37 1009.0
20260504235348 77 350 1.7 4.3 0.00 0.00 0.00 36 1008.9
20260504234345 78 256 0.0 3.5 0.00 0.00 0.00 37 1009.0
20260504233404 78 244 2.6 6.1 0.00 0.00 0.00 36 1009.0
20260504232339 77 265 1.7 6.1 0.00 0.00 0.00 37 1009.1
20260504231340 77 310 0.0 5.2 0.00 0.00 0.00 37 1009.1
20260504230339 77 32 0.0 3.5 0.00 0.00 0.00 37 1009.1
20260504225341 78 277 1.7 4.3 0.00 0.00 0.00 37 1009.3
20260504224401 77 257 0.0 3.5 0.00 0.00 0.00 38 1009.1
20260504223338 77 319 0.0 4.3 0.00 0.00 0.00 38 1009.3
20260504222341 77 329 0.9 7.0 0.00 0.00 0.00 38 1009.4
20260504221400 77 296 4.3 10.4 0.00 0.00 0.00 39 1009.6
20260504220338 76 306 2.6 4.3 0.00 0.00 0.00 39 1009.7
20260504215336 76 313 4.3 8.7 0.00 0.00 0.00 40 1009.9
20260504214332 76 263 1.7 7.0 0.00 0.00 0.00 40 1010.0
20260504213333 75 327 0.9 4.3 0.00 0.00 0.00 41 1010.3
20260504212333 75 166 0.0 2.6 0.00 0.00 0.00 41 1010.3
20260504211332 75 253 1.7 6.1 0.00 0.00 0.00 41 1010.5
20260504210330 74 272 0.9 8.7 0.00 0.00 0.00 41 1010.8
20260504205330 75 273 4.3 9.6 0.00 0.00 0.00 39 1010.9
20260504204332 75 261 3.5 9.6 0.00 0.00 0.00 38 1010.8
20260504203330 76 329 4.3 8.7 0.00 0.00 0.00 38 1010.9
20260504202350 76 270 3.5 10.4 0.00 0.00 0.00 39 1010.9
20260504201327 75 311 3.5 8.7 0.00 0.00 0.00 41 1010.9
20260504200407 75 269 5.2 8.7 0.00 0.00 0.00 40 1010.9
20260504195328 75 225 1.7 7.0 0.00 0.00 0.00 41 1010.7
20260504194328 75 234 0.9 5.2 0.00 0.00 0.00 41 1010.5
20260504193327 75 320 0.0 4.3 0.00 0.00 0.00 42 1010.7
20260504192326 75 182 0.9 5.2 0.00 0.00 0.00 42 1010.6
20260504191329 74 231 2.6 8.7 0.00 0.00 0.00 43 1011.1
20260504190333 74 261 2.6 7.0 0.00 0.00 0.00 43 1011.0